Showing default

YAOGAN-30 M, 43172

Orbit data source: Space-Track

YAOGAN-30 M, 43172 is a payload satellite owned by PLA SSF (CN) in LEO that was launched on Thu, 25 Jan 2018 UTC via a CHANG ZHENG 2C launch vehicle from the Xichang Space Center, China (XSC). Payload-class satellites include a variety of spacecraft equipped with specific instruments for various scientific and technological missions. These include communications satellites like Starlink; space stations such as the ISS; scientific satellites like the Hubble; Earth observation satellites from companies like Planet Labs, Umbra, and HawkEye 360; GPS; miniature CubeSats for education and research; and military/defense satellites.

Loading next visibility...
Identifier
43172, 2018-011D
Orbit
LEO
Country
Flag of CNCN / PRC
Related business
Manufacturer
SECM
Mission
Operational Defense Sigint
Bus & Motor
Unknown
Mass
~500 kg wet, ~500 kg dry
Launch date (UTC)
2018-01-25 (8 years ago)
Launch vehicle
CHANG ZHENG 2C
Launch site
Xichang Space Center, China (XSC)
Object type
Payload
Rocket body
Debris
Shape & HBR
Box + 2 Pan, 0.5 m
Radar Cross Section
0.446 m², Large (>1 m²)

Expand to show TLE details & history
Last TLE update: 7 hours ago

TLE from 7 hours ago
0 YAOGAN-30 M
1 43172U 18011D   26035.84592797  .00004388  00000-0  33153-3 0  9996
2 43172  34.9951 237.1169 0002682 331.9834  28.0729 15.01846467438171
Epoch: 2026-02-04T20:18Z
TLE epoch observation values (Epoch: 2026-02-04T20:18:08.176Z)
Latitude
-0.00004°
Longitude
157.57612°
Altitude
558.478 km
Speed
7.585 km/s
True Right ascension
15h 48m 28s
True Declination
0° 00' 00"
Sunlit
Object was in daylight at epoch
Visualization orbit readout
Latitude
Unknown
Longitude
Unknown
Altitude
Unknown
Speed
Unknown
Apparent Right ascension
Unknown
Apparent Declination
Unknown
Sunlit
N/A
Visualization observer readout
Local Sidereal Time
05:32:12
Azimuth
Unknown
Elevation
Unknown
Doppler factor
Unknown
Orbital elements
Apogee altitude
566.286 km
Perigee altitude
562.562 km
Semi-major axis
6,942.561 km
Eccentricity
0.00027
Inclination
34.9951°
RAAN
237.1169°
Arg. of periapsis
331.9834°
True anomaly
28.08737°
Mean anomaly
28.0729°
Eccentric anomaly
28.08013°
Mean motion
3.75201 °/min
Orbital period
95.95 mins
BSTAR
0.00033153
Loading maneuver chart data...
Computing Atmospheric mass density...
Loading historical data...
Loading historical data...
Loading historical data...
Loading historical data...
Loading historical data...
Loading historical data...
Loading historical data...
Other satellites on launch #11 in the year 2018 (2018-01-25 UTC)

Documentation

Showing up to 5 results
|